Location: Unspecified
(0.0000°N, 0.0000°E)
Time: 06:16:38
(UTC+00:00)

Vanguard 2 - Pass Details

Date: 23 September 2019
Orbit: 554 x 2937 km, 32.9° (Epoch: 14 October)

Event Time Altitude Azimuth Distance (km) Brightness Sun altitude
Rises 12:35:42 0° 259° (WSW) 2,742 10.5 79.2°
Reaches altitude 10° 12:39:33 10° 220° (SW) 2,007 9.9 78.2°
Maximum altitude 12:40:49 11° 203° (SSW) 2,019 9.9 77.9°
Drops below altitude 10° 12:42:10 10° 187° (S) 2,185 10.0 77.6°
Sets 12:47:11 0° 152° (SSE) 3,573 10.9 76.3°
